Anita, PA

4:37 AM EST on February 10, 2016 (GMT -0500)
Du Bois-Jefferson County

Weather History for KDUJ - August, 2013

Change the Weather History Date:

Saturday, August 3, 2013

  Actual Average Record
Temperature  
Mean Temperature 68 °F 68 °F  
Max Temperature 77 °F 78 °F 89 °F (1988)
Min Temperature 59 °F 58 °F 48 °F (1976)
Degree Days  
Heating Degree Days 0 1  
Month to date heating degree days 0 3  
Since 1 June heating degree days 51 112  
Since 1 July heating degree days 13 27  
Cooling Degree Days 3 4  
Month to date cooling degree days 7 12  
Year to date cooling degree days 374 237  
Since 1 June cooling degree days 315 214  
Growing Degree Days 19 (Base 50)    
Moisture  
Dew Point 59 °F    
Average Humidity 67    
Maximum Humidity 93    
Minimum Humidity 41    
Precipitation  
Precipitation 0.18 in 0.12 in 1.85 in (1964)
Month to date precipitation 0.40 0.40  
Sea Level Pressure  
Sea Level Pressure 29.95 in    
Wind  
Wind Speed 9 mph (West)    
Max Wind Speed 16 mph    
Max Gust Speed 23 mph    
Visibility 6 miles    
Events Rain    
T = Trace of Precipitation, MM = Missing Value Source: NWS Daily Summary

Daily Weather History Graph

Daily Weather History Graph

Search for Another Location

Airport or City:

Trip Planner

Search our weather history database for the weather conditions in past years. The results will help you decide how hot, cold, wet, or windy it might be!

Date:

Astronomy

Aug. 03, 2013 Rise Set
Actual Time 6:13 AM EDT 8:29 PM EDT
Civil Twilight 5:42 AM EDT 9:00 PM EDT
Nautical Twilight 5:04 AM EDT 9:38 PM EDT
Astronomical Twilight 4:22 AM EDT 10:19 PM EDT
Moon 3:20 AM EDT (8/3) 6:10 PM EDT (8/3)
Length of Visible Light 15h 17m
Length of Day
14h 16m
Waning Crescent, 9% of the Moon is Illuminated
Aug 3
Waning Crescent
Aug 6
New
Aug 14
First Quarter
Aug 20
Full
Aug 28
Last Quarter

Hourly Weather History & Observations

Time (EDT) Temp. Dew Point Humidity Pressure Visibility Wind Dir Wind Speed Gust Speed Precip Events Conditions
12:56 AM 63.0 °F 61.0 °F 93% 29.93 in 2.0 mi West 6.9 mph - 0.07 in Rain Light Rain
1:03 AM 62.6 °F 60.8 °F 94% 29.94 in 1.2 mi SSW 5.8 mph - 0.05 in Rain Light Rain
1:10 AM 62.6 °F 60.8 °F 94% 29.94 in 2.0 mi SW 8.1 mph - 0.06 in Rain Light Rain
1:14 AM 64.4 °F 60.8 °F 88% 29.94 in 3.0 mi SW 11.5 mph 16.1 mph 0.06 in Rain Light Rain
1:16 AM 64.4 °F 60.8 °F 88% 29.94 in 4.0 mi SW 10.4 mph - 0.06 in   Overcast
1:32 AM 64.4 °F 60.8 °F 88% 29.93 in 4.0 mi SSW 8.1 mph - 0.06 in   Overcast
1:56 AM 64.0 °F 61.0 °F 90% 29.91 in 5.0 mi SW 8.1 mph - 0.06 in   Overcast
2:56 AM 64.0 °F 61.0 °F 90% 29.92 in 5.0 mi West 12.7 mph - 0.06 in Rain Light Rain
3:03 AM 64.4 °F 60.8 °F 88% 29.95 in 5.0 mi West 10.4 mph - 0.00 in   Overcast
3:19 AM 64.4 °F 60.8 °F 88% 29.94 in 5.0 mi West 8.1 mph - 0.01 in   Overcast
3:56 AM 64.0 °F 61.0 °F 90% 29.92 in 4.0 mi West 6.9 mph - 0.01 in   Overcast
4:56 AM 64.0 °F 62.1 °F 93% 29.93 in 3.0 mi West 8.1 mph - N/A   Overcast
5:10 AM 64.4 °F 62.6 °F 94% 29.95 in 2.5 mi WSW 6.9 mph - N/A   Overcast
5:18 AM 64.4 °F 62.6 °F 94% 29.95 in 3.0 mi WSW 8.1 mph - N/A   Overcast
5:38 AM 64.4 °F 62.6 °F 94% 29.95 in 1.8 mi WSW 8.1 mph - 0.04 in Rain Light Rain
5:56 AM 64.9 °F 63.0 °F 93% 29.93 in 2.5 mi West 9.2 mph - 0.08 in Rain Light Rain
6:03 AM 64.4 °F 62.6 °F 94% 29.96 in 4.0 mi WSW 10.4 mph - N/A   Overcast
6:56 AM 64.9 °F 63.0 °F 93% 29.94 in 2.5 mi WSW 11.5 mph - N/A   Overcast
7:36 AM 64.4 °F 62.6 °F 94% 29.97 in 2.0 mi WSW 9.2 mph - N/A   Overcast
7:56 AM 64.9 °F 63.0 °F 93% 29.95 in 2.5 mi West 10.4 mph - N/A   Overcast
8:20 AM 64.4 °F 62.6 °F 94% 29.97 in 3.0 mi West 10.4 mph - N/A   Overcast
8:56 AM 66.0 °F 63.0 °F 90% 29.94 in 3.0 mi WSW 9.2 mph - N/A   Overcast
9:56 AM 68.0 °F 63.0 °F 84% 29.94 in 6.0 mi West 8.1 mph - N/A   Haze
10:19 AM 69.8 °F 62.6 °F 78% 29.97 in 8.0 mi West 8.1 mph - N/A   Mostly Cloudy
10:39 AM 69.8 °F 62.6 °F 78% 29.97 in 9.0 mi West 6.9 mph - N/A   Mostly Cloudy
10:47 AM 71.6 °F 62.6 °F 73% 29.97 in 10.0 mi West 6.9 mph - N/A   Scattered Clouds
10:56 AM 71.1 °F 62.1 °F 73% 29.94 in 10.0 mi West 8.1 mph - N/A   Scattered Clouds
11:56 AM 71.1 °F 60.1 °F 68% 29.94 in 10.0 mi West 10.4 mph - N/A   Scattered Clouds
12:47 PM 71.6 °F 59.0 °F 64% 29.97 in 10.0 mi West 8.1 mph - N/A   Mostly Cloudy
12:56 PM 72.0 °F 60.1 °F 66% 29.94 in 10.0 mi NW 5.8 mph - N/A   Overcast
1:13 PM 73.4 °F 60.8 °F 65% 29.97 in 10.0 mi NW 8.1 mph - N/A   Mostly Cloudy
1:56 PM 75.0 °F 57.0 °F 53% 29.93 in 10.0 mi WNW 10.4 mph - N/A   Mostly Cloudy
2:56 PM 77.0 °F 57.9 °F 52% 29.93 in 10.0 mi WNW 8.1 mph - N/A   Scattered Clouds
3:56 PM 77.0 °F 54.0 °F 45% 29.92 in 10.0 mi NW 16.1 mph 23.0 mph N/A   Mostly Cloudy
4:56 PM 75.0 °F 52.0 °F 44% 29.93 in 10.0 mi NNW 15.0 mph 20.7 mph N/A   Partly Cloudy
5:56 PM 73.0 °F 48.9 °F 42% 29.94 in 10.0 mi NW 12.7 mph - N/A   Clear
6:56 PM 72.0 °F 48.9 °F 44% 29.94 in 10.0 mi NW 9.2 mph - N/A   Partly Cloudy
7:56 PM 68.0 °F 48.9 °F 50% 29.96 in 10.0 mi NW 5.8 mph - N/A   Clear
8:56 PM 64.9 °F 48.9 °F 56% 29.97 in 10.0 mi WNW 3.5 mph - N/A   Clear
9:56 PM 62.1 °F 48.9 °F 62% 29.99 in 10.0 mi WNW 5.8 mph - N/A   Clear
10:56 PM 61.0 °F 48.9 °F 64% 29.99 in 10.0 mi WNW 5.8 mph - N/A   Clear
11:56 PM 60.1 °F 50.0 °F 69% 29.99 in 10.0 mi WNW 4.6 mph - N/A   Clear